Hourly Data Report for July 14, 2021

VICTORIA INTL A
BRITISH COLUMBIA
Current Station Operator: NAVCAN

48°38'50.000" N
123°25'33.000" W
19.50 m
1018621
71799
YYJ

Download Data

Hourly Data (July 2021)
Hourly Data Report for July 14, 2021
TIME
LST
Temp Definition
°C
Dew Point Definition
°C
Rel Hum Definition
%
Precip. Amount Definition
mm

Wind Dir Definition
10's deg

Wind Spd Definition
km/h
Visibility Definition
km
Stn Press Definition
kPa
Hmdx Definition


Wind Chill Definition


Weather Definition


00:00 12.7 12.4 98   7 7 32.2 101.30     LegendNANA
01:00 12.8 12.8 100   12 3 32.2 101.31     Clear
02:00 12.2 12.0 99   7 5 32.2 101.30     LegendNANA
03:00 11.9 11.9 100   36 2 32.2 101.32     LegendNANA
04:00 12.0 12.0 100   36 3 48.3 101.33     Clear
05:00 12.1 12.1 100   5 3 48.3 101.37     LegendNANA
06:00 13.4 13.1 98   14 4 48.3 101.39     LegendNANA
07:00 15.2 11.3 78   12 10 48.3 101.41     Clear
08:00 15.7 10.9 73   13 13 48.3 101.43     LegendNANA
09:00 18.1 10.7 62   11 12 48.3 101.43     LegendNANA
10:00 19.1 11.2 60   12 13 32.2 101.41     Clear
11:00 19.1 10.9 59   12 14 32.2 101.39     LegendNANA
12:00 19.2 11.1 59   12 16 32.2 101.38     LegendNANA
13:00 19.8 11.1 57   12 17 32.2 101.35     Clear
14:00 21.2 11.4 53   9 17 32.2 101.29     LegendNANA
15:00 21.4 11.4 52   10 15 48.3 101.26     LegendNANA
16:00 22.0 11.8 52   8 15 48.3 101.21     Clear
17:00 21.3 11.8 54   6 10 48.3 101.16     LegendNANA
18:00 19.8 11.6 59   4 11 48.3 101.11     LegendNANA
19:00 17.0 11.2 68   3 11 48.3 101.09     Clear
20:00 16.3 11.3 72   6 7 48.3 101.08     LegendNANA
21:00 14.7 12.0 84   3 9 48.3 101.12     LegendNANA
22:00 13.9 12.1 89   6 4 32.2 101.15     Clear
23:00 13.0 12.4 96   3 7 32.2 101.17     LegendNANA

Notes on Data Quality.

Legend

  • E = Estimated
  • M = Missing
  • NA = Not Available*
  • [empty] = Indicates an unobserved value
Date modified: